Flag for U.S.A. Weather past 2 weeks in Wilmington, Delaware, U.S.A.

Now
68 °F

Sunny.


Feels Like: 68 °F
Forecast: 43 / 65 °F
Wind: 10 mph from Northeast

Location: New Castle County Airport


UV Index: 5 (Moderate)

Visibility: 10 mi


Pressure: 30.25 "Hg

Humidity: 26%

Dew point: 32 °F

Location of WilmingtonLocation

Historic Weather in Wilmington

°F

Wilmington temperature yesterday

Maximum temperature yesterday: 53 °F (at 4:51 PM)
Minimum temperature yesterday: 39 °F (at 1:51 AM)
Average temperature yesterday: 45 °F

Past Weeks' High & Low Weather Summary

 TemperatureHumidityPressure
High82 °F (Apr 13, 2:51 PM)100% (Apr 8, 12:51 AM)30.70 "Hg (Apr 8, 12:51 AM)
Low31 °F (Apr 16, 5:51 AM)23% (Apr 6, 4:51 PM)29.47 "Hg (Apr 8, 6:51 AM)
Average53 °F62%30.06 "Hg
* Reported Apr 4 12:51 PM — Apr 19 12:51 PM, Wilmington, Weather by CustomWeather, © 2014

Note: Actual official high and low records may vary slightly from our data, if they occured in-between our weather recording intervals... More about our weather records

Advertising

Historic Weather Conditions — Data for Previous 24 hours

 ConditionsComfort  
Time TempWeatherWind HumidityBarometerVisibility
12:51 PM
Apr 19
67 °FSunny.10 mph25%30.26 "Hg10 mi
11:51 AM61 °FSunny.3 mph41%30.28 "Hg10 mi
10:51 AM57 °FSunny.5 mph53%30.30 "Hg10 mi
9:51 AM53 °FSunny.No wind56%30.30 "Hg10 mi
8:51 AM48 °FSunny.5 mph66%30.29 "Hg10 mi
7:51 AM45 °FSunny.No wind82%30.29 "Hg10 mi
6:51 AM40 °FClear.5 mph93%30.27 "Hg9 mi
5:51 AM41 °FClear.3 mph89%30.26 "Hg10 mi
4:51 AM42 °FClear.No wind85%30.26 "Hg10 mi
3:51 AM42 °FClear.5 mph85%30.27 "Hg10 mi
2:51 AM42 °FClear.5 mph85%30.26 "Hg10 mi
1:51 AM43 °FClear.6 mph82%30.27 "Hg10 mi
12:51 AM44 °FClear.No wind82%30.28 "Hg10 mi
11:51 PM
Apr 18
45 °FClear.6 mph80%30.29 "Hg10 mi
10:51 PM45 °FClear.No wind76%30.31 "Hg10 mi
9:51 PM46 °FClear.12 mph77%30.32 "Hg10 mi
8:51 PM48 °FClear.10 mph77%30.31 "Hg10 mi
7:51 PM49 °FSunny.9 mph69%30.30 "Hg10 mi
6:51 PM51 °FSunny.8 mph48%30.31 "Hg10 mi
5:51 PM52 °FSunny.5 mph47%30.34 "Hg10 mi
4:51 PM53 °FSunny.3 mph41%30.36 "Hg10 mi
3:51 PM51 °FSunny.6 mph50%30.37 "Hg10 mi
2:51 PM50 °FSunny.8 mph52%30.40 "Hg10 mi
Weather by CustomWeather, © 2014

See weather overview